Printer-friendly version

IAU Minor Planet Center

Minor Planet Center

MPEC 2008-O29 : 2003 JC11 = 2008 JL14

The following Minor Planet Electronic Circular may be linked-to from your own Web pages, but must not otherwise be redistributed electronically.


Read MPEC 2008-O28 Read MPEC 2008-O30


M.P.E.C. 2008-O29                                Issued 2008 July 26, 14:20 UT

     The Minor Planet Electronic Circulars contain information on unusual
         minor planets and routine data on comets.  They are published
   on behalf of Commission 20 of the International Astronomical Union by the
          Minor Planet Center, Smithsonian Astrophysical Observatory,
                          Cambridge, MA 02138, U.S.A.

             Prepared using the Tamkin Foundation Computer Network

                              MPC@CFA.HARVARD.EDU
          URL http://www.cfa.harvard.edu/iau/mpc.html  ISSN 1523-6714

                             2003 JC11 = 2008 JL14

                           Revision to MPEC 2003-J35

Additional Observations:
     K08J14L  C2008 05 28.28119 15 47 07.59 -09 58 34.0          20.6 V EO029691
     K08J14L  C2008 05 28.30228 15 47 05.91 -09 58 47.9          20.8 V EO029691
     K08J14L  C2008 05 28.31992 15 47 04.44 -09 58 59.8          20.6 V EO029691
     K08J14L  C2008 06 01.35373 15 41 59.43 -10 43 10.1          20.7 V EO029691
     K08J14L  C2008 06 01.37137 15 41 58.11 -10 43 21.2          20.8 V EO029691
     K08J14L  C2008 06 01.38899 15 41 56.80 -10 43 32.2          20.7 V EO029691

Observer details:
691 Steward Observatory, Kitt Peak.  Observers R. S. McMillan, A. F. Tubbiolo,
    T. H. Bressi.  0.9-m Spacewatch telescope.

Orbital elements:
2003 JC11 = 2008 JL14                                    Earth MOID = 0.4551 AU
Epoch 2008 May 14.0 TT = JDT 2454600.5                  MPC
M  29.79947              (2000.0)            P               Q
n   0.19748310     Peri.   70.26486     -0.76218410     -0.54524819
a   2.9204476      Node    75.17583     +0.37039402     -0.80941432
e   0.5599329      Incl.   21.16069     +0.53092718     -0.21806621
P   4.99           H   18.9           G   0.15           U   4
Residuals in seconds of arc
030501 691  1.1+  1.2+    030504 246  1.0-  0.1+    080503 691  0.3-  0.1-
030501 691  0.9+  0.8+    030504 246  0.2-  0.0     080503 691  0.2-  0.4-
030501 691  1.6+  0.7+    030504 246  0.3-  0.6+    080503 691  0.2-  0.5-
030502 291  0.6-  0.3-    030504 246  0.7-  0.8+    080505 291  0.3-  0.1+
030502 291  0.5-  0.1-    030504 246  1.2-  0.2+    080505 291  0.3-  0.0
030502 291  0.7-  0.3-    030505 651  0.9-  0.3-    080505 291  0.2+  0.1+
030502 711 (0.9-  3.9-)   030505 651  0.4+  0.5+    080528 691  0.2-  0.0
030502 711  1.3+  1.1-    030505 651  0.6-  0.4-    080528 691  0.4+  0.0
030502 711  1.3-  0.3+    030505 291  0.6+  0.5-    080528 691  0.0   0.3-
030502 926  0.6-  0.1+    030505 291  0.7+  0.0     080601 691  0.3+  0.2-
030502 926  0.1+  0.9-    030505 291  0.1+  0.6-    080601 691  0.2+  0.1+
030502 926  0.2-  0.1-    030506 291  0.3-  0.0     080601 691  0.1+  0.5+
030504 246  0.4-  0.4+    030506 291  0.6-  0.2-
030504 246  0.3-  0.1-    030506 291  0.3-  0.2-

Ephemeris:
2003 JC11                a,e,i = 2.92, 0.56, 21                  q = 1.2852
Date    TT    R. A. (2000) Decl.     Delta      r     Elong.  Phase     V
2008 07 23    15 24.20   -18 50.8    1.904    2.485   113.1    22.1    23.3
2008 08 02    15 29.47   -20 09.0    2.088    2.548   105.1    22.6    23.6
2008 08 12    15 36.68   -21 22.9    2.279    2.610    97.4    22.6    23.9

Gareth V. Williams           (C) Copyright 2008 MPC           M.P.E.C. 2008-O29

Read MPEC 2008-O28 Read MPEC 2008-O30


Our Web policy. Index to the CBAT/MPC/ICQ pages.


Valid HTML 4.01!